DW4240 Weather Reports


time (UTC)temp
C
wind
direction
speed
KPH
gust
KPH
rain 1hr
cm
rain 24hr
cm
rain mn
cm
humidity
%
barometer
mb
20260506190037 11 0 0.0 0.0 0.00 2.24 2.24 96 1006.0
20260506184529 11 0 0.0 0.0 0.00 2.24 2.24 96 1006.0
20260506183030 11 0 0.0 6.4 0.00 2.24 2.24 96 1005.8
20260506181530 11 0 0.0 3.2 0.00 2.24 2.24 96 1005.6
20260506180031 11 0 0.0 3.2 0.00 2.24 2.24 96 1005.6
20260506174530 11 0 0.0 3.2 0.00 2.24 2.24 96 1005.7
20260506173037 11 41 0.0 3.2 0.00 2.24 2.24 96 1005.5
20260506171602 11 0 0.0 1.6 0.00 2.24 2.24 96 1005.5
20260506170029 11 0 0.0 4.8 0.00 2.24 2.24 96 1005.5
20260506164528 11 0 0.0 3.2 0.00 2.24 2.24 96 1005.5
20260506163045 11 0 0.0 0.0 0.00 2.24 2.24 96 1005.4
20260506161530 11 0 0.0 3.2 0.05 2.24 2.24 96 1005.4
20260506160028 11 0 0.0 3.2 0.08 2.24 2.24 96 1005.3
20260506154535 11 0 0.0 3.2 0.05 2.21 2.21 96 1005.3
20260506153032 11 0 0.0 3.2 0.05 2.21 2.21 96 1005.4
20260506151537 11 0 0.0 4.8 0.00 2.16 2.16 96 1005.5
20260506150028 11 0 0.0 3.2 0.00 2.16 2.16 96 1005.5
20260506144529 11 0 0.0 3.2 0.03 2.16 2.16 96 1005.5
20260506143028 10 0 0.0 3.2 0.03 2.16 2.16 96 1005.5
20260506141530 11 0 0.0 3.2 0.03 2.16 2.16 96 1005.5
20260506140033 10 0 0.0 4.8 0.00 2.13 2.13 96 1005.6
20260506134528 10 0 0.0 3.2 0.00 2.11 2.11 96 1005.5
20260506133029 10 0 0.0 3.2 0.00 2.11 2.11 96 1005.6
20260506131535 10 39 0.0 3.2 0.00 2.11 2.11 96 1005.5
20260506130030 10 0 0.0 3.2 0.00 2.11 2.11 96 1005.6
20260506124528 10 0 0.0 4.8 0.00 2.11 2.11 96 1005.6
20260506123030 10 0 0.0 3.2 0.00 2.11 2.11 96 1005.5
20260506121529 10 0 0.0 4.8 0.00 2.11 2.11 96 1005.5
20260506120029 10 0 0.0 3.2 0.00 2.11 2.11 96 1005.4
20260506114527 10 0 0.0 3.2 0.00 2.11 2.11 96 1005.3
20260506113028 10 0 0.0 3.2 0.00 2.11 2.11 96 1005.3
20260506111531 10 0 0.0 3.2 0.00 2.11 2.11 96 1005.5
20260506110029 10 0 0.0 3.2 0.00 2.11 2.11 96 1005.3
20260506104528 10 42 0.0 4.8 0.00 2.11 2.11 97 1005.3
20260506103028 10 42 0.0 3.2 0.00 2.11 2.11 96 1005.3
20260506101528 10 0 0.0 4.8 0.00 2.11 2.11 97 1005.4
20260506100031 9 0 1.6 6.4 0.00 2.11 2.11 96 1005.3
20260506094526 9 38 0.0 4.8 0.00 2.11 2.11 96 1005.3
20260506093030 9 42 0.0 8.0 0.00 2.11 2.11 96 1005.3
20260506091530 9 38 0.0 6.4 0.00 2.11 2.11 96 1005.1
20260506090027 9 0 0.0 8.0 0.00 2.11 2.11 96 1005.1
20260506084536 9 0 0.0 4.8 0.03 2.11 2.11 96 1005.1
20260506083032 9 0 0.0 6.4 0.00 2.08 2.08 96 1005.0
20260506081528 9 0 0.0 8.0 0.03 2.08 2.08 96 1005.0
20260506073029 8 0 0.0 3.2 0.08 2.08 2.06 96 1004.9
20260506071530 8 36 0.0 3.2 0.08 2.06 2.06 96 1004.8
20260506061531 8 0 0.0 3.2 0.28 2.03 1.96 96 1004.4
20260506044528 9 0 0.0 3.2 0.20 1.70 1.50 96 1004.5
20260506043028 9 0 0.0 3.2 0.20 1.65 1.45 96 1004.5
20260506041544 10 0 0.0 0.0 0.20 1.57 1.40 96 1004.7
20260506040029 10 0 0.0 3.2 0.20 1.52 1.32 96 1004.7
20260506034543 10 0 0.0 3.2 0.23 1.50 1.30 96 1004.8
20260506033029 10 0 0.0 3.2 0.25 1.45 1.22 96 1004.8
20260506031529 10 0 0.0 3.2 0.28 1.40 1.17 96 1004.8
20260506030028 10 0 0.0 3.2 0.36 1.32 1.12 96 1004.9
20260506024529 10 0 0.0 3.2 0.43 1.27 1.04 96 1005.0
20260506023030 10 0 0.0 3.2 0.48 1.19 0.97 95 1005.2
20260506021529 10 0 0.0 3.2 0.48 1.09 0.86 95 1005.4
20260506020028 10 0 0.0 0.0 0.46 0.97 0.74 95 1005.5
20260506014528 10 0 0.0 3.2 0.33 0.81 0.58 95 1005.6
20260506013041 10 36 0.0 4.8 0.28 0.66 0.46 95 1005.5
20260506011528 10 0 0.0 4.8 0.20 0.56 0.36 95 1005.6
20260506010032 10 0 0.0 3.2 0.20 0.51 0.28 95 1005.7
20260506004527 10 0 0.0 3.2 0.18 0.46 0.23 95 1005.6
20260506003030 10 0 0.0 6.4 0.15 0.38 0.18 95 1005.8
20260506001529 10 0 0.0 4.8 0.13 0.36 0.13 95 1005.8
20260506000029 10 0 0.0 3.2 0.08 0.28 0.08 94 1005.9
20260505234529 11 0 0.0 3.2 0.03 0.28 0.03 95 1006.2
20260505233030 11 40 0.0 4.8 0.00 0.25 0.00 94 1006.4
20260505231531 11 0 0.0 8.0 0.00 0.23 0.00 94 1006.6
20260505230027 11 0 0.0 4.8 0.00 0.23 0.00 94 1006.6
20260505224530 11 0 0.0 4.8 0.00 0.23 0.00 94 1006.8
20260505223037 11 0 0.0 4.8 0.00 0.23 0.00 94 1006.8
20260505221528 11 0 0.0 6.4 0.00 0.23 0.00 93 1006.9
20260505220047 11 0 0.0 6.4 0.00 0.23 0.00 93 1007.0
20260505214535 11 0 0.0 3.2 0.00 0.30 0.23 93 1007.0
20260505213033 11 0 0.0 4.8 0.00 0.30 0.23 93 1007.2
20260505211531 11 0 0.0 6.4 0.00 0.30 0.23 93 1007.3
20260505210030 11 40 0.0 6.4 0.00 0.30 0.23 93 1007.3
20260505204530 11 0 0.0 4.8 0.00 0.41 0.23 93 1007.4
20260505203029 11 0 0.0 4.8 0.00 0.41 0.23 93 1007.3
20260505201528 11 0 0.0 4.8 0.00 0.41 0.23 93 1007.3
20260505200036 11 36 0.0 4.8 0.00 0.41 0.23 92 1007.1
20260505194530 11 0 0.0 4.8 0.00 0.64 0.23 92 1007.2
20260505193028 12 0 0.0 8.0 0.00 0.64 0.23 92 1007.2
20260505191529 12 0 0.0 3.2 0.00 0.64 0.23 92 1007.1